FW8891 Weather Reports


time (UTC)temp
C
wind
direction
speed
KPH
gust
KPH
rain 1hr
cm
rain 24hr
cm
rain mn
cm
humidity
%
barometer
mb
20260507210602 35 122 3.2 11.3 0.00 0.00 0.00 14 1010.9
20260507210059 33 150 4.8 11.3 0.00 0.00 0.00 12 1010.9
20260507205559 34 102 4.8 17.7 0.00 0.00 0.00 12 1011.0
20260507205058 34 180 6.4 17.7 0.00 0.00 0.00 14 1011.2
20260507204600 33 118 3.2 16.1 0.00 0.00 0.00 14 1011.2
20260507204058 34 123 8.0 14.5 0.00 0.00 0.00 13 1011.4
20260507203558 34 105 6.4 17.7 0.00 0.00 0.00 14 1011.5
20260507203101 35 112 9.7 17.7 0.00 0.00 0.00 13 1011.6
20260507202559 34 208 8.0 17.7 0.00 0.00 0.00 14 1011.5
20260507202059 33 219 4.8 14.5 0.00 0.00 0.00 15 1011.5
20260507201600 34 119 6.4 14.5 0.00 0.00 0.00 14 1011.6
20260507201059 33 205 4.8 20.9 0.00 0.00 0.00 14 1011.7
20260507200559 33 300 1.6 20.9 0.00 0.00 0.00 13 1011.8
20260507200109 34 186 6.4 20.9 0.00 0.00 0.00 14 1012.0
20260507195559 34 108 6.4 19.3 0.00 0.00 0.00 14 1011.8
20260507195058 34 155 9.7 19.3 0.00 0.00 0.00 15 1011.9
20260507194557 34 231 6.4 19.3 0.00 0.00 0.00 14 1012.0
20260507194058 33 134 6.4 16.1 0.00 0.00 0.00 15 1012.1
20260507193558 33 128 8.0 16.1 0.00 0.00 0.00 15 1012.1
20260507193059 33 131 8.0 14.5 0.00 0.00 0.00 16 1012.2
20260507192558 33 153 6.4 16.1 0.00 0.00 0.00 15 1012.2
20260507192101 33 149 8.0 16.1 0.00 0.00 0.00 14 1012.4
20260507191600 33 118 8.0 16.1 0.00 0.00 0.00 14 1012.4
20260507191059 33 117 6.4 16.1 0.00 0.00 0.00 14 1012.5
20260507190559 33 277 6.4 19.3 0.00 0.00 0.00 14 1012.5
20260507190059 33 148 4.8 19.3 0.00 0.00 0.00 15 1012.5
20260507185600 32 142 9.7 19.3 0.00 0.00 0.00 14 1012.7
20260507185059 32 125 9.7 19.3 0.00 0.00 0.00 15 1012.8
20260507184606 33 122 8.0 17.7 0.00 0.00 0.00 15 1012.8
20260507184058 32 165 8.0 17.7 0.00 0.00 0.00 15 1012.9
20260507183558 32 142 9.7 19.3 0.00 0.00 0.00 15 1013.0
20260507183057 32 152 9.7 19.3 0.00 0.00 0.00 14 1013.1
20260507182600 33 127 6.4 14.5 0.00 0.00 0.00 14 1013.2
20260507182059 32 127 4.8 14.5 0.00 0.00 0.00 15 1013.2
20260507181605 32 212 6.4 16.1 0.00 0.00 0.00 15 1013.3
20260507181058 31 231 6.4 16.1 0.00 0.00 0.00 14 1013.3
20260507180601 32 128 8.0 14.5 0.00 0.00 0.00 14 1013.4
20260507180059 32 352 3.2 11.3 0.00 0.00 0.00 14 1013.5
20260507175602 32 226 6.4 16.1 0.00 0.00 0.00 15 1013.5
20260507175058 31 131 6.4 16.1 0.00 0.00 0.00 15 1013.6
20260507174609 31 125 8.0 16.1 0.00 0.00 0.00 14 1013.6
20260507174101 32 150 3.2 11.3 0.00 0.00 0.00 15 1013.6
20260507173559 31 152 4.8 11.3 0.00 0.00 0.00 14 1013.7
20260507173100 31 117 3.2 14.5 0.00 0.00 0.00 14 1013.7
20260507172601 31 85 8.0 14.5 0.00 0.00 0.00 13 1013.8
20260507172057 31 64 4.8 14.5 0.00 0.00 0.00 14 1013.8
20260507171605 31 34 4.8 14.5 0.00 0.00 0.00 14 1013.8
20260507171058 31 81 4.8 14.5 0.00 0.00 0.00 14 1014.0
20260507170559 31 72 6.4 14.5 0.00 0.00 0.00 14 1013.9
20260507170059 31 92 3.2 12.9 0.00 0.00 0.00 14 1014.0
20260507165558 31 83 3.2 12.9 0.00 0.00 0.00 14 1014.1
20260507165058 30 33 6.4 11.3 0.00 0.00 0.00 14 1014.1
20260507164600 30 56 4.8 11.3 0.00 0.00 0.00 14 1014.1
20260507164102 30 56 4.8 16.1 0.00 0.00 0.00 14 1014.2
20260507163559 30 98 6.4 16.1 0.00 0.00 0.00 14 1014.2
20260507163100 30 97 4.8 12.9 0.00 0.00 0.00 15 1014.2
20260507162558 30 65 6.4 17.7 0.00 0.00 0.00 15 1014.2
20260507162058 30 47 8.0 17.7 0.00 0.00 0.00 15 1014.1
20260507161601 30 84 8.0 14.5 0.00 0.00 0.00 15 1014.3
20260507161058 29 120 3.2 14.5 0.00 0.00 0.00 15 1014.4
20260507160558 29 122 6.4 17.7 0.00 0.00 0.00 14 1014.4
20260507160100 28 78 4.8 17.7 0.00 0.00 0.00 15 1014.4
20260507155557 28 65 4.8 17.7 0.00 0.00 0.00 15 1014.5
20260507155058 28 65 11.3 17.7 0.00 0.00 0.00 16 1014.5
20260507154605 28 70 9.7 16.1 0.00 0.00 0.00 16 1014.5
20260507154059 28 89 8.0 17.7 0.00 0.00 0.00 16 1014.6
20260507153559 28 44 9.7 17.7 0.00 0.00 0.00 16 1014.6
20260507153102 27 31 8.0 17.7 0.00 0.00 0.00 16 1014.7
20260507152558 27 67 8.0 17.7 0.00 0.00 0.00 17 1014.6
20260507152057 27 83 6.4 17.7 0.00 0.00 0.00 17 1014.5
20260507151559 27 84 8.0 17.7 0.00 0.00 0.00 18 1014.5
20260507151058 27 93 8.0 14.5 0.00 0.00 0.00 19 1014.5
20260507150558 27 342 8.0 17.7 0.00 0.00 0.00 19 1014.5
20260507150058 26 56 9.7 19.3 0.00 0.00 0.00 20 1014.6
20260507145558 26 75 9.7 20.9 0.00 0.00 0.00 20 1014.7
20260507145057 26 60 11.3 20.9 0.00 0.00 0.00 20 1014.6
20260507144557 26 72 8.0 19.3 0.00 0.00 0.00 21 1014.6
20260507144058 25 68 8.0 19.3 0.00 0.00 0.00 22 1014.6
20260507143559 25 60 9.7 19.3 0.00 0.00 0.00 23 1014.7
20260507143058 25 58 0.0 3.2 0.00 0.00 0.00 26 1014.6
20260507142558 24 0 0.0 4.8 0.00 0.00 0.00 28 1014.6
20260507142058 23 57 1.6 4.8 0.00 0.00 0.00 29 1014.5
20260507141559 22 0 0.0 0.0 0.00 0.00 0.00 32 1014.5
20260507141058 21 0 0.0 0.0 0.00 0.00 0.00 35 1014.6
20260507140557 20 0 0.0 0.0 0.00 0.00 0.00 35 1014.6
20260507140104 20 0 0.0 0.0 0.00 0.00 0.00 36 1014.6
20260507135602 19 0 0.0 1.6 0.00 0.00 0.00 36 1014.6
20260507135058 19 0 0.0 3.2 0.00 0.00 0.00 37 1014.5
20260507134600 19 0 0.0 3.2 0.00 0.00 0.00 37 1014.6
20260507134057 18 276 0.0 3.2 0.00 0.00 0.00 38 1014.4
20260507133558 18 0 0.0 0.0 0.00 0.00 0.00 38 1014.4
20260507133101 18 0 0.0 0.0 0.00 0.00 0.00 38 1014.3
20260507132558 18 0 0.0 1.6 0.00 0.00 0.00 37 1014.3
20260507132058 17 0 0.0 3.2 0.00 0.00 0.00 38 1014.3
20260507131602 17 247 1.6 3.2 0.00 0.00 0.00 38 1014.2
20260507131058 17 212 0.0 1.6 0.00 0.00 0.00 38 1014.1
20260507130558 17 255 0.0 0.0 0.00 0.00 0.00 37 1014.1
20260507130110 18 0 0.0 0.0 0.00 0.00 0.00 35 1014.1
20260507125558 18 0 0.0 3.2 0.00 0.00 0.00 35 1014.1
20260507125100 18 0 0.0 8.0 0.00 0.00 0.00 35 1013.9
20260507124558 18 314 1.6 8.0 0.00 0.00 0.00 35 1013.9
20260507124058 18 254 0.0 3.2 0.00 0.00 0.00 35 1013.8
20260507123600 18 0 0.0 3.2 0.00 0.00 0.00 35 1013.9
20260507123100 18 0 0.0 6.4 0.00 0.00 0.00 35 1013.8
20260507122558 20 301 1.6 6.4 0.00 0.00 0.00 34 1013.9
20260507122058 20 3 1.6 4.8 0.00 0.00 0.00 33 1013.9
20260507121606 20 351 0.0 6.4 0.00 0.00 0.00 33 1013.9
20260507121058 20 68 3.2 11.3 0.00 0.00 0.00 32 1013.9
20260507120604 20 118 1.6 11.3 0.00 0.00 0.00 32 1013.9
20260507115558 21 49 1.6 12.9 0.00 0.00 0.00 32 1013.9
20260507115058 21 18 3.2 12.9 0.00 0.00 0.00 32 1014.0
20260507114613 21 68 4.8 12.9 0.00 0.00 0.00 32 1014.1
20260507114100 21 44 6.4 12.9 0.00 0.00 0.00 32 1014.1
20260507113558 21 51 3.2 9.7 0.00 0.00 0.00 32 1014.2
20260507113100 20 68 4.8 9.7 0.00 0.00 0.00 32 1014.2
20260507112602 20 289 3.2 9.7 0.00 0.00 0.00 33 1014.3
20260507112101 20 314 0.0 11.3 0.00 0.00 0.00 33 1014.3
20260507111606 20 315 3.2 12.9 0.00 0.00 0.00 32 1014.3
20260507111058 20 342 3.2 12.9 0.00 0.00 0.00 34 1014.3
20260507110559 20 330 1.6 6.4 0.00 0.00 0.00 34 1014.4
20260507110111 20 319 1.6 4.8 0.00 0.00 0.00 33 1014.4
20260507105558 19 352 1.6 4.8 0.00 0.00 0.00 33 1014.5
20260507105058 19 303 1.6 4.8 0.00 0.00 0.00 34 1014.4
20260507104558 19 316 0.0 4.8 0.00 0.00 0.00 34 1014.5
20260507104057 19 295 0.0 6.4 0.00 0.00 0.00 34 1014.5
20260507103557 19 348 3.2 6.4 0.00 0.00 0.00 34 1014.5
20260507103058 19 309 1.6 4.8 0.00 0.00 0.00 34 1014.5
20260507102558 18 335 0.0 1.6 0.00 0.00 0.00 35 1014.6
20260507102058 18 0 0.0 1.6 0.00 0.00 0.00 35 1014.6
20260507101605 18 335 0.0 1.6 0.00 0.00 0.00 36 1014.6
20260507101058 17 0 0.0 1.6 0.00 0.00 0.00 36 1014.6
20260507100557 17 0 0.0 1.6 0.00 0.00 0.00 35 1014.6
20260507100057 17 1 0.0 3.2 0.00 0.00 0.00 35 1014.6
20260507095558 18 0 0.0 3.2 0.00 0.00 0.00 35 1014.6
20260507095101 18 1 0.0 1.6 0.00 0.00 0.00 34 1014.6
20260507094558 18 0 0.0 3.2 0.00 0.00 0.00 34 1014.6
20260507094058 18 297 0.0 6.4 0.00 0.00 0.00 33 1014.6
20260507093558 18 323 1.6 6.4 0.00 0.00 0.00 33 1014.6
20260507093059 18 349 1.6 4.8 0.00 0.00 0.00 33 1014.6
20260507092601 18 359 3.2 4.8 0.00 0.00 0.00 33 1014.6
20260507092059 18 0 1.6 3.2 0.00 0.00 0.00 33 1014.6
20260507091601 18 323 1.6 3.2 0.00 0.00 0.00 32 1014.6
20260507091058 19 315 0.0 4.8 0.00 0.00 0.00 32 1014.6
20260507090557 19 315 1.6 6.4 0.00 0.00 0.00 32 1014.7
20260507090104 20 324 3.2 6.4 0.00 0.00 0.00 31 1014.7
20260507085557 20 325 3.2 6.4 0.00 0.00 0.00 31 1014.7
20260507085058 20 339 3.2 6.4 0.00 0.00 0.00 31 1014.8
20260507084559 20 323 1.6 4.8 0.00 0.00 0.00 31 1014.7
20260507084103 20 276 1.6 6.4 0.00 0.00 0.00 32 1014.7
20260507083558 20 314 1.6 8.0 0.00 0.00 0.00 31 1014.9
20260507083059 19 330 3.2 8.0 0.00 0.00 0.00 31 1014.9
20260507082558 19 307 3.2 9.7 0.00 0.00 0.00 32 1014.9
20260507082100 19 319 3.2 9.7 0.00 0.00 0.00 31 1015.0
20260507081604 19 338 3.2 8.0 0.00 0.00 0.00 32 1014.9
20260507081100 19 326 1.6 3.2 0.00 0.00 0.00 31 1014.9
20260507080559 19 309 0.0 3.2 0.00 0.00 0.00 31 1014.9
20260507075558 19 295 1.6 4.8 0.00 0.00 0.00 31 1014.9
20260507075100 19 328 1.6 4.8 0.00 0.00 0.00 31 1015.0
20260507074611 19 328 3.2 4.8 0.00 0.00 0.00 31 1015.0
20260507074059 19 325 3.2 4.8 0.00 0.00 0.00 31 1015.0
20260507073559 20 332 3.2 4.8 0.00 0.00 0.00 31 1015.1
20260507073059 20 335 3.2 4.8 0.00 0.00 0.00 30 1015.1
20260507072600 20 342 3.2 4.8 0.00 0.00 0.00 30 1015.1
20260507072103 20 330 3.2 6.4 0.00 0.00 0.00 30 1015.0
20260507071559 20 323 3.2 6.4 0.00 0.00 0.00 30 1014.9
20260507071059 20 323 3.2 6.4 0.00 0.00 0.00 30 1015.0
20260507070559 20 302 4.8 9.7 0.00 0.00 0.00 30 1015.0
20260507070100 20 330 4.8 9.7 0.00 0.00 0.00 30 1015.0
20260507065603 20 340 4.8 8.0 0.00 0.00 0.00 30 1015.0
20260507065059 20 337 4.8 6.4 0.00 0.00 0.00 30 1015.0
20260507064558 20 332 3.2 4.8 0.00 0.00 0.00 32 1015.0
20260507064100 20 338 0.0 0.0 0.00 0.00 0.00 32 1015.0
20260507063559 20 0 0.0 0.0 0.00 0.00 0.00 33 1015.0
20260507063059 20 0 0.0 0.0 0.00 0.00 0.00 33 1014.9
20260507062559 20 0 0.0 0.0 0.00 0.00 0.00 32 1014.9
20260507062100 20 0 0.0 3.2 0.00 0.00 0.00 32 1014.9
20260507061607 20 0 0.0 3.2 0.00 0.00 0.00 32 1015.0
20260507061100 20 0 1.6 3.2 0.00 0.00 0.00 31 1014.9
20260507060559 20 0 0.0 1.6 0.00 0.00 0.00 32 1014.9
20260507060059 20 0 0.0 1.6 0.00 0.00 0.00 32 1014.8
20260507055559 20 0 0.0 1.6 0.00 0.00 0.00 33 1014.9
20260507055059 20 0 0.0 1.6 0.00 0.00 0.00 31 1015.0
20260507054639 21 0 0.0 1.6 0.00 0.00 0.00 32 1014.9
20260507054059 21 0 0.0 0.0 0.00 0.00 0.00 31 1014.9
20260507053600 21 0 0.0 0.0 0.00 0.00 0.00 32 1015.0
20260507053100 21 0 0.0 1.6 0.00 0.00 0.00 32 1015.0
20260507052600 21 0 0.0 1.6 0.00 0.00 0.00 31 1015.0
20260507052100 21 0 0.0 1.6 0.00 0.00 0.00 31 1015.0
20260507051559 21 51 0.0 1.6 0.00 0.00 0.00 30 1015.0
20260507051059 21 0 0.0 1.6 0.00 0.00 0.00 30 1014.9
20260507050559 21 139 0.0 1.6 0.00 0.00 0.00 31 1014.7
20260507050100 21 0 0.0 1.6 0.00 0.00 0.00 31 1014.7
20260507045600 21 0 0.0 1.6 0.00 0.00 0.00 31 1014.7
20260507045059 21 0 0.0 1.6 0.00 0.00 0.00 31 1014.6
20260507044602 21 139 0.0 1.6 0.00 0.00 0.00 31 1014.5
20260507044059 21 0 0.0 0.0 0.00 0.00 0.00 31 1014.6
20260507043558 22 0 0.0 1.6 0.00 0.00 0.00 30 1014.6
20260507043057 22 0 0.0 1.6 0.00 0.00 0.00 31 1014.5
20260507042558 21 0 0.0 1.6 0.00 0.00 0.00 30 1014.5
20260507042058 22 0 0.0 0.0 0.00 0.00 0.00 30 1014.5
20260507041604 22 0 0.0 1.6 0.00 0.00 0.00 31 1014.4
20260507041058 23 0 0.0 1.6 0.00 0.00 0.00 29 1014.3
20260507040558 23 0 0.0 1.6 0.00 0.00 0.00 29 1014.2
20260507040058 23 0 0.0 1.6 0.00 0.00 0.00 28 1014.1
20260507035557 23 0 0.0 1.6 0.00 0.00 0.00 28 1014.1
20260507035058 23 0 0.0 1.6 0.00 0.00 0.00 28 1013.9
20260507034601 23 0 0.0 1.6 0.00 0.00 0.00 28 1013.9
20260507034058 24 0 0.0 3.2 0.00 0.00 0.00 27 1013.9
20260507033558 24 139 0.0 3.2 0.00 0.00 0.00 27 1013.8
20260507033105 24 0 0.0 3.2 0.00 0.00 0.00 27 1013.8
20260507032559 24 0 0.0 4.8 0.00 0.00 0.00 27 1013.7
20260507032058 25 180 3.2 4.8 0.00 0.00 0.00 26 1013.6
20260507031608 25 161 1.6 4.8 0.00 0.00 0.00 26 1013.6
20260507031059 25 169 1.6 6.4 0.00 0.00 0.00 25 1013.6
20260507030558 25 173 3.2 8.0 0.00 0.00 0.00 25 1013.5
20260507030059 25 174 4.8 9.7 0.00 0.00 0.00 25 1013.4
20260507025601 25 193 4.8 9.7 0.00 0.00 0.00 25 1013.3
20260507025058 25 215 4.8 9.7 0.00 0.00 0.00 25 1013.2
20260507024600 26 268 4.8 12.9 0.00 0.00 0.00 25 1013.2
20260507024058 26 174 6.4 12.9 0.00 0.00 0.00 25 1013.1
20260507023558 26 233 4.8 12.9 0.00 0.00 0.00 25 1013.1
20260507023106 26 253 4.8 12.9 0.00 0.00 0.00 24 1013.1
20260507022559 26 240 6.4 12.9 0.00 0.00 0.00 24 1013.0
20260507022058 26 226 4.8 11.3 0.00 0.00 0.00 24 1013.0
20260507021602 26 234 4.8 11.3 0.00 0.00 0.00 24 1012.9
20260507021101 26 232 3.2 11.3 0.00 0.00 0.00 24 1012.9
20260507020559 26 134 4.8 11.3 0.00 0.00 0.00 25 1012.8
20260507020101 27 146 4.8 14.5 0.00 0.00 0.00 25 1012.8
20260507015558 27 162 6.4 14.5 0.00 0.00 0.00 24 1012.9
20260507015058 27 111 4.8 11.3 0.00 0.00 0.00 24 1012.8
20260507014605 27 155 6.4 11.3 0.00 0.00 0.00 24 1012.8
20260507014058 27 136 4.8 12.9 0.00 0.00 0.00 24 1012.8
20260507013558 27 136 8.0 16.1 0.00 0.00 0.00 24 1012.8
20260507013058 27 135 6.4 16.1 0.00 0.00 0.00 24 1012.8
20260507012558 27 121 8.0 14.5 0.00 0.00 0.00 24 1012.7
20260507012100 27 99 8.0 14.5 0.00 0.00 0.00 25 1012.7
20260507011559 27 121 8.0 14.5 0.00 0.00 0.00 24 1012.7
20260507011100 28 140 4.8 14.5 0.00 0.00 0.00 24 1012.7
20260507010558 27 114 9.7 14.5 0.00 0.00 0.00 24 1012.8
20260507010105 28 121 6.4 14.5 0.00 0.00 0.00 24 1012.8
20260507005559 28 150 8.0 12.9 0.00 0.00 0.00 24 1012.8
20260507005058 28 148 8.0 17.7 0.00 0.00 0.00 24 1012.7
20260507004600 28 148 8.0 17.7 0.00 0.00 0.00 25 1012.7
20260507004058 28 138 8.0 17.7 0.00 0.00 0.00 24 1012.7
20260507003559 28 185 8.0 12.9 0.00 0.00 0.00 23 1012.7
20260507003100 28 236 6.4 12.9 0.00 0.00 0.00 23 1012.7
20260507002558 28 181 9.7 14.5 0.00 0.00 0.00 23 1012.7
20260507002059 28 251 8.0 16.1 0.00 0.00 0.00 23 1012.7
20260507001604 28 180 6.4 16.1 0.00 0.00 0.00 23 1012.7
20260507001058 29 186 4.8 16.1 0.00 0.00 0.00 23 1012.7
20260507000559 29 92 8.0 16.1 0.00 0.00 0.00 23 1012.7
20260507000058 29 152 3.2 12.9 0.00 0.00 0.00 22 1012.7
20260506235559 29 257 6.4 12.9 0.00 0.00 0.00 23 1012.7
20260506235059 29 208 3.2 16.1 0.00 0.00 0.00 24 1012.7
20260506234558 29 229 6.4 16.1 0.00 0.00 0.00 23 1012.7
20260506234058 28 199 6.4 14.5 0.00 0.00 0.00 24 1012.7
20260506233559 29 154 9.7 14.5 0.00 0.00 0.00 23 1012.8
20260506233117 29 178 4.8 17.7 0.00 0.00 0.00 23 1012.9
20260506232558 29 181 4.8 17.7 0.00 0.00 0.00 23 1013.0
20260506232058 29 221 8.0 17.7 0.00 0.00 0.00 23 1013.0
20260506231559 29 179 3.2 14.5 0.00 0.00 0.00 24 1013.1
20260506231100 29 105 6.4 14.5 0.00 0.00 0.00 23 1013.2
20260506230558 29 211 4.8 12.9 0.00 0.00 0.00 24 1013.1
20260506230058 28 183 3.2 9.7 0.00 0.00 0.00 24 1013.2
20260506225558 28 167 3.2 9.7 0.00 0.00 0.00 23 1013.1
20260506225059 29 0 1.6 16.1 0.00 0.00 0.00 23 1013.2
20260506224559 29 273 1.6 17.7 0.00 0.00 0.00 23 1013.3
20260506224059 29 224 9.7 17.7 0.00 0.00 0.00 24 1013.4
20260506223601 28 122 4.8 12.9 0.00 0.00 0.00 24 1013.4
20260506223102 28 146 3.2 12.9 0.00 0.00 0.00 24 1013.5
20260506222559 28 145 6.4 14.5 0.00 0.00 0.00 25 1013.6
20260506222059 28 118 8.0 17.7 0.00 0.00 0.00 24 1013.6
20260506221600 29 210 9.7 17.7 0.00 0.00 0.00 24 1013.6
20260506221059 29 85 11.3 17.7 0.00 0.00 0.00 23 1013.6
20260506220559 28 200 6.4 17.7 0.00 0.00 0.00 24 1013.6
20260506220100 28 71 6.4 11.3 0.00 0.00 0.00 23 1013.8
20260506215559 29 160 4.8 11.3 0.00 0.00 0.00 24 1013.9
20260506215059 28 224 6.4 16.1 0.00 0.00 0.00 24 1013.9
20260506214558 28 124 4.8 16.1 0.00 0.00 0.00 25 1014.0
20260506214100 28 100 4.8 12.9 0.00 0.00 0.00 24 1014.1
20260506213559 28 132 4.8 12.9 0.00 0.00 0.00 24 1014.3
20260506213118 28 242 4.8 12.9 0.00 0.00 0.00 24 1014.4
20260506212559 28 237 6.4 12.9 0.00 0.00 0.00 25 1014.5
20260506212102 28 205 4.8 12.9 0.00 0.00 0.00 24 1014.6
20260506211559 28 162 6.4 17.7 0.00 0.00 0.00 24 1014.7
20260506211059 28 209 8.0 17.7 0.00 0.00 0.00 25 1014.8